Location: Newark
(44.3248°N, 23.7839°E)
Time: 11:40:07
(UTC+00:00)

UNISAT 6 - Pass Details

Date: 19 April 2024
Orbit: 593 x 667 km, 97.7° (Epoch: 25 May)

Event Time Altitude Azimuth Distance (km) Brightness Sun altitude
Rises 02:37:18 0° 177° (S) 2,953 ? -10.2°
Reaches altitude 10° 02:39:34 10° 181° (S) 2,036 ? -9.9°
Maximum altitude 02:43:55 55° 260° (W) 764 ? -9.2°
Drops below altitude 10° 02:48:13 10° 339° (NNW) 2,005 ? -8.5°
Sets 02:50:26 0° 343° (NNW) 2,904 ? -8.1°
